Theta_e
275 275 275 275 275 275 275 274 274 274 274 274 274 274 274 273 273 273 273 273 273 273 273 273 272 272 272 272 273 273 273 273 274 274 275 275 275 276 276 277 278 279 280 281 282 282 283 284 284 285 286 287 289 290 292 294 296 297 299 301 302 303 304 304 305 305 304 304 305 306 308 310 311 313
275 275 275 275 275 275 274 274 274 274 274 273 273 273 273 273 273 273 273 273 273 273 273 272 272 272 272 272 272 273 273 273 274 274 274 275 275 276 277 277 278 279 280 280 281 282 283 284 284 285 286 286 288 289 291 292 294 296 298 300 302 303 303 304 304 304 304 304 304 305 307 309 311 313
275 275 275 275 275 274 274 274 274 273 273 273 273 273 273 273 273 273 273 272 272 273 272 272 272 272 272 272 273 273 273 273 274 274 274 275 275 276 276 277 277 278 279 279 280 281 282 283 284 285 285 286 287 289 290 291 293 295 297 298 301 302 303 303 304 304 304 304 304 305 306 308 309 312
275 275 275 275 274 274 274 274 273 273 273 272 272 272 272 272 272 272 272 272 272 272 272 272 272 272 272 273 273 273 273 274 274 274 275 275 275 275 276 276 276 277 278 279 280 280 282 283 283 284 285 286 287 288 289 291 292 294 296 298 300 301 303 303 304 304 304 303 304 305 306 307 308 310
275 274 274 274 275 274 274 273 273 273 272 272 272 272 272 272 272 272 272 272 272 272 272 272 272 272 273 273 273 273 273 274 274 274 274 275 275 275 275 275 276 276 277 278 279 280 281 282 283 284 284 285 286 287 288 290 291 293 295 297 299 300 302 303 304 304 304 304 304 305 306 307 308 309
274 274 275 275 274 274 273 273 273 272 271 271 271 271 271 271 272 271 272 272 271 272 272 272 272 273 273 273 273 273 273 274 274 274 274 274 274 274 275 275 275 276 277 278 279 280 281 282 283 283 284 285 286 287 288 289 290 292 293 295 297 299 301 302 304 304 304 304 304 305 306 307 309 309
274 274 275 275 274 273 273 273 272 271 271 270 270 271 271 271 271 271 271 271 271 272 272 273 273 273 273 273 273 273 273 274 274 274 274 274 274 274 275 275 275 276 277 278 279 279 280 281 282 283 284 284 285 286 287 288 289 290 292 293 296 298 300 301 303 304 303 303 303 304 306 307 308 308
274 275 275 275 274 273 273 272 272 271 270 270 270 270 270 270 270 271 271 271 272 272 272 273 273 273 273 273 273 273 273 273 273 273 273 274 274 274 275 275 276 276 277 278 278 279 280 281 282 283 283 284 285 286 287 288 288 290 291 292 294 297 299 300 302 303 303 303 303 304 305 306 307 307
274 275 275 274 273 273 273 272 272 271 270 270 269 269 269 270 270 271 271 272 272 273 273 273 273 273 273 273 273 272 272 273 273 273 274 274 274 275 275 275 275 276 276 277 278 279 279 280 281 282 283 284 285 285 286 287 288 289 290 290 292 296 298 299 301 302 302 302 303 304 305 306 306 306
275 275 275 274 273 273 272 272 272 271 270 270 269 269 270 270 271 271 272 272 273 273 274 273 273 273 272 272 272 272 272 273 273 273 274 274 274 274 275 275 275 276 276 277 277 278 279 280 281 282 283 283 284 285 286 287 288 289 289 288 290 294 296 298 299 300 301 302 302 303 304 305 305 305
275 275 274 273 273 273 272 272 271 271 270 270 270 270 271 271 271 272 272 273 273 273 273 273 272 272 271 271 271 272 272 272 273 273 273 274 274 275 275 275 275 275 275 276 277 278 278 279 280 281 283 283 284 285 286 286 287 289 289 289 290 293 295 297 298 299 301 302 302 302 303 303 304 304
275 274 273 273 273 272 272 272 272 271 271 271 271 271 271 272 272 272 273 273 273 273 272 271 271 271 271 271 271 271 271 272 272 273 273 274 274 274 274 274 274 274 274 275 275 276 276 277 278 280 281 283 284 285 286 286 286 287 288 289 291 294 295 296 298 299 300 301 301 301 302 302 303 303
275 274 273 273 272 272 272 272 272 271 271 271 271 272 272 272 273 273 274 273 273 272 271 271 271 270 270 271 271 271 271 271 272 272 272 273 273 273 273 273 273 273 274 274 275 275 276 277 278 279 281 283 284 285 285 286 286 286 286 288 292 295 295 295 297 298 299 300 301 301 301 301 301 302
274 273 273 272 272 272 272 271 271 271 271 271 271 272 272 273 273 274 273 273 271 271 271 271 271 270 270 270 270 270 270 270 271 271 271 271 272 272 272 272 272 273 273 274 275 275 276 277 278 279 281 282 284 285 285 285 285 285 284 287 292 295 295 295 296 298 299 300 300 301 301 301 301 301
274 273 272 272 272 271 271 270 270 270 270 270 271 272 272 273 273 273 272 272 271 271 271 270 270 270 269 269 269 269 269 269 269 270 270 271 271 271 271 271 272 272 273 274 275 275 276 277 279 280 280 282 284 286 286 285 285 285 284 285 291 295 295 295 296 297 298 299 300 301 301 301 301 301
273 273 272 272 271 271 270 270 269 269 269 270 271 272 272 273 272 272 271 271 271 270 270 270 270 269 269 269 268 268 268 268 268 269 269 269 270 270 270 271 271 272 272 273 274 274 275 277 278 280 281 283 285 286 287 286 285 286 285 285 289 294 295 295 296 296 297 299 299 300 301 301 301 302
273 272 272 271 271 271 270 269 269 268 268 270 271 272 272 271 270 270 270 270 270 270 270 269 269 269 268 268 268 268 268 268 268 268 268 269 269 270 270 271 271 271 272 272 273 274 275 276 278 280 281 284 286 287 287 287 287 287 286 286 288 292 294 295 296 296 297 298 299 299 300 301 301 302
272 272 271 271 271 270 269 269 268 268 269 270 271 272 270 269 269 268 268 268 268 269 269 269 269 268 268 268 268 268 268 268 268 268 268 269 269 270 270 271 271 271 272 272 273 273 274 275 277 279 280 283 287 289 289 289 290 291 290 289 290 292 293 294 295 296 297 297 298 299 300 300 300 301
272 271 271 271 270 270 269 268 268 269 270 271 272 271 269 269 268 267 267 267 268 269 269 269 269 268 268 268 269 269 269 269 269 269 269 269 270 270 270 271 271 271 272 272 272 272 273 274 276 278 279 281 286 290 290 290 292 293 293 293 293 293 294 294 295 296 297 297 298 298 299 299 299 300
272 271 271 270 270 269 269 268 268 270 271 272 271 270 269 268 267 267 267 268 269 269 269 269 268 268 269 269 269 269 269 269 269 269 269 270 270 270 270 270 271 271 271 272 272 273 274 275 276 278 279 281 286 290 292 291 292 293 294 295 295 295 295 295 295 296 297 297 298 298 298 298 298 299
271 270 270 270 270 269 268 268 269 271 272 271 270 269 269 268 267 266 267 268 268 268 267 267 267 267 268 268 268 268 268 268 269 268 268 269 269 270 270 270 270 271 271 272 273 274 275 276 277 279 280 281 286 291 293 293 293 294 295 296 296 296 296 296 296 296 297 297 297 298 298 298 297 298
270 270 270 270 269 269 268 268 270 271 271 271 270 269 268 267 266 267 268 268 267 266 265 265 265 266 266 266 266 266 266 267 267 267 267 267 268 268 268 269 269 270 271 273 274 275 276 277 279 281 283 284 288 292 293 294 295 295 296 297 297 297 297 297 297 297 297 297 297 297 298 298 297 299
270 269 269 269 269 268 268 269 270 271 271 270 270 268 267 266 267 268 268 267 265 264 264 264 264 264 265 265 265 265 265 266 266 266 266 266 267 267 268 268 269 270 272 275 277 277 278 279 281 282 285 289 291 293 294 295 296 297 297 297 297 297 297 297 297 297 297 297 297 297 297 297 298 300
269 269 268 268 268 268 268 269 270 270 270 270 269 267 266 267 268 268 267 265 264 263 263 263 264 264 264 264 264 264 265 265 265 265 266 266 266 267 267 268 269 270 272 275 277 278 279 282 284 285 288 292 293 294 295 296 296 297 297 297 296 296 296 297 297 297 297 297 297 297 297 297 298 300
269 268 268 267 266 267 268 269 270 270 270 269 267 267 267 269 268 267 265 263 263 262 262 263 263 264 264 264 264 264 264 264 265 265 266 266 267 267 267 268 269 270 272 274 276 277 278 282 287 289 290 293 294 294 294 295 295 296 296 296 296 296 296 296 297 297 297 297 297 297 297 298 299 299
268 267 267 266 266 267 268 269 269 269 269 268 267 268 269 268 266 264 263 262 262 262 262 262 263 263 263 263 264 264 264 264 265 265 266 267 267 268 268 269 269 271 273 275 275 275 276 280 286 291 293 294 294 294 294 294 294 295 295 295 295 295 295 296 296 297 297 297 298 298 298 298 299 299
267 267 266 266 266 267 268 269 269 268 267 267 267 268 268 266 264 263 262 261 261 261 261 262 262 262 263 263 263 263 264 264 265 265 266 267 268 269 271 271 271 272 274 274 273 273 275 278 283 287 291 294 294 294 294 294 293 294 294 294 294 295 295 295 295 296 297 297 298 298 298 299 299 299
267 266 266 266 267 268 268 268 268 267 266 266 267 267 265 264 262 262 261 261 261 260 261 261 261 262 262 262 262 263 263 264 265 265 266 267 268 270 272 273 273 273 273 272 272 273 274 276 280 284 288 292 294 294 294 293 293 293 293 293 293 294 294 295 295 296 296 297 298 298 299 299 299 300
267 266 266 267 267 267 267 267 266 265 265 265 265 264 263 262 261 261 261 261 260 260 260 260 261 261 261 262 262 263 263 264 264 265 266 267 268 270 271 272 272 273 272 271 272 274 275 276 280 284 287 290 293 294 294 293 293 292 293 293 293 293 294 295 295 295 296 297 297 298 299 299 299 299
267 266 266 266 266 266 266 266 265 264 264 264 263 263 262 262 261 261 260 260 259 259 259 260 260 261 261 261 262 262 263 264 264 264 265 265 267 268 270 270 271 271 272 272 272 275 277 279 281 284 286 289 291 293 294 294 293 293 292 293 294 294 294 295 295 295 296 297 297 298 298 298 299 299
266 266 265 265 265 266 265 265 264 264 263 263 263 262 262 261 261 260 260 260 259 259 259 259 260 260 260 261 261 262 263 263 264 264 264 264 266 267 268 269 269 270 271 273 274 276 277 279 282 283 284 287 290 292 293 293 292 293 293 293 294 294 294 295 296 295 296 297 297 297 297 298 298 298
266 265 265 266 266 266 265 264 264 264 264 263 262 262 261 261 260 260 260 259 259 259 259 259 260 260 260 260 261 261 262 263 263 264 264 264 265 266 267 267 268 268 270 271 273 276 278 279 281 281 283 285 288 290 290 288 287 289 290 291 293 294 294 295 296 296 296 296 297 297 297 298 298 297
265 265 265 266 266 265 264 264 264 264 263 263 262 262 261 261 260 260 259 259 259 259 259 259 259 259 259 260 260 261 262 262 262 263 263 264 264 265 266 267 267 267 268 268 269 271 275 278 280 281 282 283 284 285 284 283 282 283 284 286 288 290 291 292 294 295 295 295 296 296 297 297 297 297
265 265 265 265 264 263 263 263 263 262 262 262 262 261 261 260 260 259 259 259 259 259 259 259 259 259 259 259 260 260 261 262 262 262 263 263 263 264 265 266 266 266 267 268 267 267 269 273 277 280 281 282 281 280 280 279 279 279 280 281 283 284 287 289 291 293 294 295 295 295 295 296 297 297
265 264 264 264 264 263 262 262 262 262 261 261 261 261 261 260 260 259 259 259 259 259 259 259 259 258 258 259 259 260 260 261 261 262 262 263 263 263 264 265 265 266 266 267 267 266 267 268 272 275 279 281 281 280 279 278 277 277 278 279 280 281 283 286 289 291 293 294 295 295 294 295 295 296
264 264 264 264 263 262 262 262 262 262 261 261 260 260 260 260 260 259 259 259 259 259 259 259 259 258 258 258 259 259 260 260 260 261 261 262 262 263 263 264 265 265 265 266 266 266 266 267 268 270 273 277 279 280 279 278 277 276 276 277 278 279 281 284 287 290 291 292 294 294 294 294 294 294
264 264 264 264 263 263 262 262 262 262 262 261 261 260 260 260 260 260 260 259 259 259 259 258 258 258 258 258 258 259 259 260 260 260 260 261 262 262 262 263 264 264 265 265 265 265 266 266 267 267 269 271 273 276 277 276 276 276 275 275 277 278 279 281 285 288 290 291 292 293 293 294 294 294
264 264 264 264 264 263 263 263 263 262 262 262 261 261 261 260 260 260 260 260 259 259 259 259 259 258 258 258 258 258 259 259 259 259 260 260 261 261 262 262 263 264 264 264 264 264 265 265 266 267 267 267 269 272 273 272 274 276 276 275 276 277 278 279 281 284 287 290 291 292 292 293 293 294
264 264 264 264 264 264 264 264 264 263 262 262 261 261 261 260 260 260 260 260 259 259 259 259 258 258 258 258 258 258 258 258 258 259 259 260 260 261 261 261 262 263 264 264 264 264 264 264 265 266 266 266 267 269 269 269 271 274 275 275 275 275 276 278 278 280 285 289 290 291 292 292 292 293
264 264 264 265 265 265 265 265 264 263 263 262 262 261 261 260 260 260 260 260 259 259 259 259 258 258 258 258 258 258 258 258 258 258 258 259 260 260 260 261 261 262 263 263 263 263 264 264 264 265 266 267 268 270 270 270 272 273 274 274 275 274 275 276 277 278 282 286 288 290 291 291 291 292
265 264 264 265 265 265 265 265 265 264 263 263 262 262 261 260 260 260 260 260 260 259 259 259 259 259 258 258 258 258 258 258 258 258 258 258 259 259 259 260 260 261 261 262 262 262 263 263 264 265 266 267 269 270 271 271 272 272 272 273 275 276 276 277 278 279 281 283 285 288 290 291 291 291
265 265 265 265 265 265 265 265 265 264 264 263 263 263 262 261 261 260 260 260 260 260 259 259 259 259 259 259 258 258 258 258 258 258 257 258 258 258 259 259 259 259 260 260 261 262 263 263 264 265 265 266 267 269 269 270 271 271 270 270 274 277 279 280 280 280 281 281 282 283 285 287 289 291
266 265 265 265 266 265 265 265 265 264 264 264 263 263 263 262 262 261 261 260 260 260 259 259 259 259 259 259 259 258 258 258 258 257 257 257 258 258 258 258 258 259 259 259 260 261 262 263 264 264 264 265 266 267 268 269 270 270 269 268 269 273 277 280 282 281 281 280 281 281 282 283 285 288
266 266 265 266 266 266 266 265 265 265 264 264 264 264 263 263 262 262 261 260 260 260 260 259 259 259 259 259 259 259 258 258 258 258 257 257 257 257 257 258 258 258 258 259 259 261 262 262 263 263 263 264 265 266 267 268 269 268 267 267 267 268 270 274 278 280 281 281 281 282 282 283 284 285
266 266 266 266 266 266 266 265 265 265 265 264 264 264 264 263 263 262 262 261 261 261 260 260 259 259 259 259 259 259 258 258 258 258 258 257 257 257 257 257 257 258 258 258 258 260 261 262 262 262 263 263 264 265 266 267 267 267 266 266 266 266 266 268 271 274 276 278 279 280 282 283 285 287
Wind_Speed
18 18 18 18 17 18 18 19 19 20 22 21 19 18 15 13 11 12 15 12 10 18 21 18 21 23 23 27 29 29 31 30 29 29 30 30 31 30 29 29 28 28 29 29 30 30 30 27 26 25 25 24 23 23 23 22 21 20 19 19 18 20 23 22 23 27 29 29 28 26 26 28 29 27
18 18 18 18 18 19 19 20 21 21 22 22 20 19 18 17 14 10 14 14 11 17 23 21 22 27 28 29 31 31 31 30 29 30 31 31 31 30 29 29 29 28 29 29 30 30 30 28 26 25 24 24 24 23 24 23 22 21 20 20 19 18 20 20 20 23 25 26 27 27 26 27 30 31
18 18 18 18 18 19 20 21 22 22 22 22 21 20 19 19 19 15 13 14 14 19 25 27 28 30 31 31 31 32 32 30 29 29 30 30 30 30 30 29 28 28 28 28 29 29 29 28 26 25 24 24 24 23 24 23 22 22 21 21 20 18 19 19 19 19 22 24 25 26 29 30 31 32
18 18 18 18 19 20 21 22 22 22 21 22 22 22 20 18 20 21 15 12 17 24 27 31 32 31 31 32 31 32 32 30 29 28 29 29 30 30 30 29 28 28 28 28 29 29 30 29 27 25 24 23 23 23 23 23 23 22 21 21 20 19 19 18 18 18 20 24 26 26 28 31 32 32
18 18 18 19 21 22 21 22 21 20 21 22 22 21 20 18 19 21 19 13 16 24 27 30 33 32 31 31 30 30 32 31 29 29 29 29 29 31 32 31 31 29 28 28 28 28 29 29 28 26 25 24 24 24 24 23 23 22 21 21 20 19 19 18 17 17 19 23 26 27 28 29 31 31
19 18 18 20 22 21 21 21 20 20 21 21 22 21 19 18 18 19 21 18 14 17 25 31 32 31 30 30 29 29 31 32 30 29 30 30 30 32 32 32 30 28 27 27 27 28 29 29 29 27 26 25 24 24 24 24 24 22 21 21 20 19 18 19 18 16 16 21 25 26 27 28 31 31
20 19 19 21 21 20 20 21 20 20 21 20 20 20 18 18 19 20 22 21 15 15 22 29 31 29 29 30 29 28 30 31 30 31 32 32 31 30 29 29 29 27 27 27 27 28 29 29 30 29 27 26 25 25 25 25 24 23 22 22 21 20 18 17 17 16 15 19 24 26 26 28 31 31
20 20 20 21 21 21 21 21 21 21 20 20 20 20 18 18 19 21 23 24 24 21 19 24 30 31 31 31 30 29 29 30 31 31 31 30 29 28 27 27 28 27 27 28 28 28 28 29 30 30 29 27 26 26 25 25 25 24 23 24 22 21 20 17 15 16 16 17 22 26 27 27 28 29
21 21 22 21 21 22 21 21 22 22 21 21 21 20 19 19 21 25 26 27 27 25 22 26 31 32 31 31 31 28 27 28 28 27 27 27 27 27 27 28 28 27 27 27 27 27 28 29 30 31 31 29 28 27 26 25 25 25 25 26 25 22 21 19 16 15 16 17 21 25 27 27 25 24
22 22 21 21 21 22 22 22 23 23 23 22 22 21 21 23 25 26 26 26 27 26 26 28 30 31 30 30 28 25 23 24 25 26 27 26 25 25 25 25 25 24 24 24 24 24 25 26 28 30 31 30 29 29 28 27 26 26 27 27 26 25 23 21 18 16 16 17 20 25 27 27 25 21
21 21 20 20 22 22 21 22 22 23 23 22 21 22 23 24 25 24 26 28 25 23 24 25 26 28 28 25 25 24 23 23 24 24 23 22 22 22 21 22 23 23 24 25 25 25 26 27 28 29 30 30 29 29 29 29 28 27 27 28 27 26 25 23 21 19 18 17 19 24 26 26 26 23
20 20 20 19 20 20 20 20 20 21 21 20 19 21 22 23 25 25 27 25 18 16 21 23 24 26 25 23 23 23 22 20 19 20 20 20 22 23 23 24 25 25 27 28 28 29 28 29 31 30 30 30 30 29 29 30 31 29 28 28 27 26 26 25 24 22 21 20 19 22 25 25 25 24
20 19 17 17 18 19 18 17 18 19 19 19 19 21 22 24 25 25 24 22 17 16 19 20 20 21 19 20 21 20 19 18 18 21 22 22 25 26 26 27 25 24 25 26 27 27 26 27 28 28 30 30 30 30 30 31 32 32 32 30 28 27 27 26 26 25 23 22 21 20 22 23 23 22
19 17 16 17 17 17 16 16 17 18 18 18 20 22 24 25 25 23 22 22 21 17 15 15 16 14 13 17 20 20 22 22 22 23 22 23 24 22 21 24 24 21 21 22 24 24 24 25 27 27 29 29 29 29 31 32 34 35 35 34 30 28 28 28 28 28 26 24 24 22 21 22 22 22
18 16 16 17 16 17 17 17 17 19 19 19 21 24 25 24 24 24 23 22 20 16 13 15 17 13 12 18 22 22 23 23 22 22 22 22 21 16 12 14 16 15 16 18 21 22 21 22 26 28 29 29 28 29 31 32 34 35 35 36 33 30 29 29 29 30 29 27 25 24 23 22 22 22
17 16 16 16 16 17 16 16 19 22 21 21 23 24 24 24 25 24 22 22 21 19 16 16 17 16 16 21 22 20 21 22 22 23 23 22 22 18 12 11 15 18 17 19 22 22 22 22 24 26 27 27 29 30 30 31 33 34 34 36 35 33 30 29 30 30 30 29 28 26 25 24 23 23
16 15 16 16 17 18 16 17 22 23 22 24 25 23 24 27 27 24 23 22 22 23 22 19 18 19 20 22 24 23 24 24 23 21 21 22 23 21 17 17 24 25 20 20 20 20 22 22 22 24 25 25 27 29 30 30 31 32 34 34 35 35 33 31 30 31 32 31 30 28 26 25 25 24
15 15 15 17 18 17 17 20 22 21 23 25 23 23 27 29 29 28 26 24 22 22 23 22 24 27 27 27 30 32 31 31 29 25 24 24 23 24 25 27 30 28 23 22 19 17 22 23 20 23 27 26 26 28 28 29 30 31 32 33 33 33 34 33 32 32 33 33 31 30 28 26 25 25
15 15 16 16 17 17 19 21 20 19 22 23 21 23 26 27 29 30 27 23 22 22 22 24 27 29 30 30 32 32 30 29 30 30 29 28 25 26 26 25 28 28 26 24 18 13 19 24 19 21 27 27 25 27 28 28 30 30 29 30 32 32 33 34 33 32 33 33 32 31 30 28 26 25
15 15 15 16 16 17 20 20 18 18 21 21 20 21 23 25 30 32 28 23 21 21 22 24 26 27 28 29 28 28 25 24 25 25 25 25 23 20 16 14 19 24 22 22 20 13 17 22 19 19 26 26 23 26 28 28 30 31 30 30 30 31 32 33 33 32 33 33 33 31 30 29 27 26
14 14 14 15 16 17 19 18 17 18 21 20 19 20 22 24 27 30 32 30 26 23 22 23 24 26 27 27 26 27 24 22 23 21 17 16 14 11 9 8 11 16 18 22 23 16 15 21 18 17 24 26 23 24 27 29 30 30 31 31 30 29 30 31 32 32 33 33 32 32 31 30 28 27
12 13 14 14 14 16 17 16 16 19 19 18 18 18 19 22 24 28 33 35 34 31 27 25 25 24 24 25 25 26 24 22 21 18 14 14 11 7 7 7 8 13 20 25 24 18 15 19 18 14 17 20 21 25 26 25 28 30 30 30 29 27 27 28 30 32 33 33 33 32 32 31 30 29
12 14 14 13 12 13 14 15 17 18 18 17 17 16 16 19 24 27 30 31 32 33 32 31 30 27 25 25 26 26 24 23 21 18 16 17 14 10 8 8 7 8 12 14 13 12 13 16 17 15 10 7 12 21 23 21 23 28 28 27 25 24 24 25 28 31 32 33 33 32 33 32 31 31
14 15 14 13 13 13 13 15 17 17 16 16 14 13 15 19 23 25 27 27 27 28 30 30 29 27 25 25 27 28 26 26 25 21 19 17 17 16 13 11 8 7 11 15 13 9 10 14 16 18 15 7 5 11 17 18 20 23 25 24 22 20 21 23 27 29 31 32 33 33 33 33 33 32
15 15 14 15 14 13 13 15 16 16 16 14 12 13 15 19 21 22 24 26 27 27 28 28 27 27 26 26 29 31 30 30 28 25 23 21 19 18 18 15 10 9 17 21 19 14 11 13 15 17 16 10 4 7 12 16 18 20 21 22 20 19 21 24 27 29 30 31 32 32 33 33 34 34
14 14 15 15 13 12 13 15 15 14 14 12 12 14 16 18 20 20 21 24 26 27 27 26 26 27 27 29 35 38 36 33 31 29 27 24 21 18 18 18 15 14 18 22 20 16 12 13 12 8 10 9 5 6 7 8 14 19 20 21 22 22 23 25 27 28 29 30 31 32 32 33 34 34
13 14 14 12 11 12 14 14 13 13 13 12 13 15 16 17 20 22 23 24 25 26 25 24 24 26 28 30 34 38 38 35 33 32 30 26 24 19 14 12 13 15 18 20 18 13 10 12 11 6 3 6 5 5 3 4 10 17 18 19 22 22 23 25 27 27 28 29 30 30 31 31 32 32
12 12 11 11 12 12 12 12 12 11 12 13 14 16 16 17 22 24 24 25 25 24 23 23 23 25 27 28 30 34 35 33 31 31 30 28 25 20 13 9 8 10 14 16 15 11 7 8 10 9 3 3 4 5 4 4 9 14 16 16 17 20 21 23 25 26 26 27 29 29 29 30 30 31
9 9 10 10 11 11 10 11 12 12 12 13 14 16 16 18 23 25 24 25 25 23 22 23 23 25 27 29 29 31 31 30 30 32 33 31 28 24 18 14 11 10 13 18 19 16 12 10 10 9 5 2 4 5 5 5 7 12 16 14 13 18 22 22 23 24 24 25 27 28 30 31 31 31
7 8 8 8 8 9 8 9 10 11 12 13 14 17 18 19 22 23 23 23 23 22 22 23 24 26 28 29 29 29 28 28 30 34 37 36 34 30 23 17 18 19 20 25 28 24 20 17 13 10 8 4 4 4 5 6 6 10 15 15 12 13 18 22 22 23 25 25 26 28 30 30 30 31
6 6 6 6 7 7 7 7 8 10 12 14 16 18 19 20 21 21 20 20 21 22 22 23 24 26 27 27 29 29 28 28 29 33 38 37 33 31 25 17 19 25 28 32 34 30 26 23 19 14 10 5 4 6 9 8 5 6 12 15 14 11 15 22 23 22 24 25 23 25 28 27 28 29
5 5 4 4 6 7 7 8 10 12 14 16 17 18 19 20 20 21 21 22 23 23 23 23 24 27 27 27 28 27 26 27 28 31 36 35 32 32 27 17 14 21 29 38 41 35 29 26 24 21 19 14 9 9 14 15 12 9 4 5 8 7 10 19 24 23 24 24 20 21 24 27 28 29
4 3 2 4 7 8 9 11 13 15 16 17 18 19 19 20 21 22 23 25 26 25 24 24 25 27 27 27 28 27 25 27 28 28 32 35 35 34 26 16 14 17 19 26 37 39 34 28 22 23 28 30 27 22 18 13 12 13 14 11 7 6 4 6 14 20 24 25 22 19 21 25 27 29
4 2 1 3 7 7 7 10 12 14 16 17 18 19 19 20 22 23 23 24 25 25 24 24 24 26 26 26 28 27 26 27 29 28 29 31 35 34 23 13 16 21 17 16 28 39 40 33 24 20 25 31 36 36 31 20 13 15 17 19 17 13 10 6 1 10 18 23 23 19 18 22 26 27
3 2 2 2 5 5 5 7 10 11 13 15 17 19 19 20 22 23 24 24 25 25 24 24 25 26 25 25 26 26 25 26 27 28 29 30 34 35 26 13 15 22 20 18 25 34 36 34 28 20 15 15 19 26 32 30 24 21 18 19 21 19 14 11 6 4 11 17 19 16 13 16 22 27
4 4 4 3 4 4 3 5 8 10 11 13 15 17 18 19 21 23 22 23 24 24 24 24 25 25 26 25 25 24 24 25 25 27 28 28 29 31 26 18 18 24 23 21 26 31 31 31 26 16 9 8 7 8 16 25 28 26 20 19 22 22 18 15 10 2 7 13 17 15 11 12 17 24
7 6 5 4 4 3 2 4 6 7 9 11 12 14 15 17 19 20 20 21 23 24 23 23 25 25 26 26 25 25 25 24 23 24 26 26 25 25 21 17 19 26 28 27 29 33 32 28 24 15 8 7 7 4 7 15 24 27 25 23 22 21 20 18 13 7 3 9 15 16 13 13 15 19
9 8 6 5 3 2 1 2 4 6 7 9 11 11 13 15 16 18 19 21 22 23 23 24 25 25 26 26 26 25 25 24 24 24 25 25 25 23 20 18 18 23 27 29 34 38 36 29 24 20 11 4 3 4 5 8 16 24 27 24 21 21 20 18 14 11 8 5 9 13 13 12 12 14
10 9 8 6 4 2 1 2 3 4 5 8 9 10 11 14 15 17 19 20 21 22 22 23 24 24 25 26 25 24 24 24 24 24 24 24 23 22 21 20 19 20 22 24 30 37 37 31 29 27 20 10 6 8 7 6 10 20 26 24 20 21 20 17 14 13 13 10 5 7 10 10 10 10
12 10 10 8 6 4 2 0 2 2 3 6 7 8 9 11 13 16 17 18 19 20 21 22 23 24 24 26 26 25 24 24 23 23 24 23 23 23 23 21 20 20 18 16 20 26 30 31 31 29 24 20 14 10 8 7 9 18 27 28 24 21 19 17 15 15 15 15 10 3 5 6 7 8
14 13 12 10 7 6 4 1 0 1 2 4 5 6 7 8 10 12 13 14 16 18 19 20 22 23 24 25 26 25 24 24 24 25 25 24 22 24 24 22 21 21 17 12 15 21 25 28 29 23 21 22 18 9 5 6 6 12 24 31 30 25 21 19 17 14 15 18 15 6 1 1 4 6
15 14 13 11 9 7 5 3 2 1 1 3 4 5 6 7 8 9 11 13 14 15 17 19 20 21 22 23 24 24 24 24 24 25 25 25 23 24 25 24 22 21 17 13 15 21 24 27 28 24 22 26 24 13 5 6 6 9 19 30 34 30 23 21 20 18 18 23 21 13 7 4 2 2
15 14 14 13 11 9 7 5 3 2 1 1 3 4 6 7 7 8 10 13 13 14 16 17 18 20 21 21 22 23 23 23 24 24 25 25 23 22 23 23 21 21 20 18 19 24 26 28 29 26 24 26 25 15 5 5 9 11 15 24 33 35 29 23 22 20 20 23 24 19 13 8 5 4
15 15 15 14 12 10 8 6 5 3 2 1 1 3 5 6 7 8 9 10 12 12 13 14 16 18 19 20 21 22 22 22 22 23 23 24 23 22 22 23 23 22 23 22 23 24 26 27 27 26 24 23 22 16 9 8 10 13 15 19 26 32 33 30 27 23 22 25 27 24 19 13 7 7
16 16 15 14 13 11 10 8 6 5 3 2 1 2 4 5 5 7 7 8 10 11 11 12 14 16 17 18 19 20 20 21 21 22 22 23 24 23 23 24 24 23 24 24 23 23 25 26 25 25 23 22 21 19 15 12 12 14 16 18 20 24 28 30 29 24 22 25 29 28 24 19 11 5
Wind_Direction
281 286 289 290 292 296 299 295 290 289 289 292 297 300 298 294 298 304 303 303 305 307 308 306 304 306 306 304 304 303 301 301 301 300 298 297 296 295 295 293 293 292 291 291 291 289 289 287 284 282 281 279 278 278 275 274 273 270 271 270 265 258 253 258 264 264 266 270 272 279 286 287 292 294
283 288 289 290 293 295 292 288 288 293 295 297 299 296 292 290 287 291 297 296 298 305 305 301 301 304 304 303 302 300 299 299 299 298 296 295 294 294 293 292 291 291 291 290 289 289 287 286 284 280 279 276 274 274 272 270 271 270 270 270 267 262 257 257 264 264 261 264 267 268 274 285 292 294
285 290 291 290 291 290 288 290 294 296 296 297 297 293 290 287 285 286 289 289 293 300 301 300 299 301 301 300 300 298 296 297 297 295 294 293 293 293 292 291 290 290 290 289 287 288 286 285 284 280 277 275 271 270 270 268 267 267 268 268 266 263 258 257 260 263 260 259 262 266 267 273 286 294
286 290 291 288 287 287 289 294 296 295 296 298 297 293 291 287 285 286 285 283 291 294 296 297 298 299 298 298 298 297 296 296 296 294 292 292 293 293 291 290 290 289 287 287 285 285 285 283 282 280 276 274 271 268 267 265 264 264 264 265 264 261 255 254 256 258 259 258 257 261 265 267 275 289
284 287 287 284 284 287 292 295 294 295 299 300 297 293 291 288 284 286 287 284 289 294 295 295 296 297 297 296 296 297 296 296 296 294 292 293 293 292 292 290 289 288 285 284 283 283 283 282 281 279 276 273 270 268 266 264 262 261 262 261 261 259 253 249 252 253 252 252 253 255 260 264 267 280
280 283 284 281 283 290 295 293 292 297 302 302 297 293 291 289 287 287 288 288 289 293 295 294 295 297 296 295 295 296 295 295 296 295 293 293 292 291 290 289 287 287 284 282 281 280 280 280 279 277 275 272 269 267 265 263 261 259 260 259 256 255 252 247 246 247 246 244 245 250 255 260 263 271
278 280 280 280 286 294 295 290 290 297 302 301 297 295 293 290 288 288 287 285 283 285 290 293 295 298 298 296 296 296 295 295 295 295 293 293 291 289 287 287 286 285 284 282 280 279 278 277 277 276 274 271 268 266 264 261 259 258 257 256 253 250 249 247 245 243 245 244 241 245 252 256 261 269
279 276 276 281 290 294 291 287 290 295 298 298 297 295 293 288 287 289 284 277 276 280 287 293 295 297 297 296 297 297 295 294 293 292 291 291 289 287 286 286 286 285 284 282 280 278 276 275 275 275 273 271 267 265 262 259 257 255 254 251 248 246 244 246 247 240 243 246 239 242 249 255 262 269
278 274 276 284 292 293 287 285 289 293 295 296 295 292 291 290 287 286 282 276 277 281 285 293 296 297 297 296 296 295 293 293 293 291 289 289 288 288 288 286 286 286 284 282 280 278 275 274 274 274 272 269 265 262 259 258 254 251 251 250 245 243 242 244 245 239 240 243 238 237 244 250 259 267
276 275 279 288 293 290 285 284 288 292 293 292 291 289 290 290 286 283 284 284 284 284 287 294 298 299 298 297 296 294 292 291 292 293 292 290 288 287 288 287 287 287 285 282 280 278 277 275 274 274 272 268 263 258 254 252 251 248 247 248 245 241 239 239 239 237 236 238 236 234 239 243 249 261
275 279 284 289 291 288 285 286 289 293 292 289 287 289 290 291 290 289 290 290 287 288 293 296 297 297 297 296 294 295 295 291 289 291 292 291 291 290 290 291 291 291 288 284 281 279 279 278 277 274 273 269 262 257 251 247 245 244 243 244 242 239 238 235 232 232 231 233 234 233 237 242 242 251
279 284 287 287 287 289 289 289 293 296 295 291 290 291 293 294 294 292 290 290 288 293 298 297 295 296 297 295 294 295 296 292 288 289 292 293 295 295 293 290 289 289 287 283 281 279 277 277 276 273 271 268 262 256 251 246 241 239 238 239 239 238 236 233 228 227 228 229 231 233 235 239 240 243
283 286 287 286 287 291 290 291 296 298 297 297 295 296 298 298 296 293 293 297 299 298 297 295 293 294 293 293 295 295 292 291 292 294 294 292 292 293 291 288 287 286 285 283 281 278 275 274 273 270 268 267 264 257 250 245 240 237 233 232 234 235 234 231 226 224 226 225 225 229 232 234 235 236
285 287 289 289 290 291 291 293 297 299 299 300 299 301 303 301 302 304 305 306 303 298 294 294 295 295 292 292 294 292 290 291 292 292 291 288 290 292 291 289 287 285 283 283 281 278 275 272 269 266 264 265 264 258 249 242 238 236 231 227 228 231 232 229 224 222 225 224 222 224 226 227 227 228
286 290 293 294 293 292 294 296 297 300 302 302 303 306 305 305 308 311 310 307 304 298 290 293 297 295 292 295 294 292 292 292 290 290 289 288 290 291 290 289 289 287 287 288 286 283 280 274 267 262 259 259 259 254 248 241 236 234 230 226 224 226 229 228 225 222 223 225 223 222 222 222 220 221
287 290 294 295 295 294 296 296 298 302 306 309 311 309 306 308 310 310 308 307 306 303 297 296 297 293 292 297 295 293 294 294 290 287 284 282 283 282 281 281 282 284 289 289 286 284 282 278 273 267 260 256 255 250 245 241 235 231 228 225 224 225 226 227 226 223 223 224 225 224 222 220 218 217
288 290 295 296 296 296 296 297 301 305 311 317 317 311 308 310 310 309 308 307 304 302 299 293 289 290 293 293 291 290 290 287 284 280 275 272 271 271 270 272 276 281 284 282 281 283 279 274 273 271 265 260 255 248 241 236 231 227 225 223 224 226 226 226 225 223 222 222 223 225 223 220 217 216
289 293 296 296 297 297 297 301 305 307 310 313 314 313 311 311 311 311 312 311 307 302 297 291 291 295 295 289 287 289 284 276 270 267 266 264 263 264 267 270 274 276 275 273 276 280 274 271 271 270 267 266 259 246 236 230 224 221 221 220 223 226 226 226 225 222 221 220 220 223 223 221 218 216
288 293 295 295 296 295 299 304 304 305 307 310 314 314 310 309 310 312 313 313 311 307 303 299 299 301 300 295 294 295 290 279 272 269 268 267 266 269 273 273 272 272 270 266 262 266 269 266 265 266 266 268 262 246 234 227 220 217 218 218 220 224 225 225 224 222 220 219 218 219 221 221 219 216
286 290 292 295 296 296 301 305 303 305 310 315 319 314 308 308 312 314 317 317 313 312 312 309 307 307 307 306 306 306 305 300 294 289 282 275 273 273 275 275 272 270 268 258 246 250 267 260 254 262 266 267 263 244 231 226 220 216 218 218 218 220 222 223 223 220 219 218 217 216 218 219 219 218
286 289 291 295 297 298 303 305 306 312 317 320 319 312 308 311 314 318 324 324 320 319 317 313 313 314 314 315 316 315 315 313 311 309 296 282 280 275 269 274 273 271 271 258 241 238 257 252 243 253 261 263 258 238 225 224 220 215 216 218 217 217 219 221 221 219 218 218 216 216 216 216 217 217
284 289 293 295 296 300 304 306 311 318 322 322 318 313 313 314 313 319 326 325 323 325 327 324 322 321 320 321 324 323 321 319 321 318 301 292 293 279 265 277 283 280 275 260 236 222 243 250 239 238 253 258 245 226 221 223 218 210 211 213 213 213 215 218 220 218 217 216 216 215 215 214 214 214
282 289 295 294 296 302 306 309 315 321 324 322 317 316 315 309 309 319 325 324 324 325 328 330 329 328 329 331 334 333 329 329 332 323 307 297 285 269 267 275 276 281 279 265 238 220 239 249 236 224 233 246 219 210 213 214 205 200 202 204 206 209 213 217 219 219 217 215 214 214 213 213 211 210
284 292 294 291 296 304 309 314 319 324 325 322 320 321 314 306 313 323 324 324 327 325 324 327 329 330 334 337 342 344 341 342 343 334 324 312 288 270 265 264 265 264 267 283 304 298 261 248 235 223 222 223 184 187 197 197 191 193 198 200 202 208 214 218 219 218 217 216 214 213 213 212 209 208
284 291 291 292 300 309 313 319 324 325 325 326 327 325 319 319 327 332 328 329 334 332 330 331 333 335 337 339 345 349 348 348 347 341 335 327 306 283 264 255 255 260 265 280 303 309 283 263 248 225 214 212 167 149 178 190 193 198 206 212 216 218 219 217 215 215 216 216 215 213 212 211 209 209
284 288 290 298 310 315 317 323 326 326 329 332 331 329 331 336 341 341 338 339 339 337 336 336 337 341 342 341 345 349 350 349 349 346 342 338 327 309 285 267 255 259 277 294 307 306 285 275 274 236 190 184 159 142 158 179 191 199 209 220 227 229 223 214 209 209 211 212 213 213 211 211 211 211
286 288 293 309 323 320 320 325 327 329 334 336 336 338 342 345 348 350 350 348 344 341 341 341 341 343 344 342 342 344 346 347 348 348 348 349 347 339 321 293 270 269 287 305 318 316 283 271 299 337 147 167 150 142 151 148 170 186 198 212 222 225 221 210 204 204 206 207 209 211 211 211 212 213
287 294 303 318 324 320 323 327 327 334 341 341 344 350 351 352 355 357 355 351 347 345 345 345 343 342 342 340 338 338 341 345 350 352 355 359 1 0 356 338 313 305 316 328 340 352 335 301 326 4 37 157 139 147 172 150 151 169 181 196 210 216 217 211 203 200 201 202 203 204 205 207 209 211
294 302 305 310 316 320 327 330 331 340 348 348 351 358 1 0 1 1 357 353 351 349 346 343 340 338 339 338 337 338 342 349 356 0 3 7 10 12 11 8 1 353 354 360 8 20 24 9 5 16 22 58 107 128 150 140 141 163 171 176 191 204 209 209 204 199 198 198 199 199 201 203 205 206
284 290 300 312 323 329 335 334 333 341 352 356 3 10 11 7 4 2 359 355 352 348 343 339 337 336 337 339 342 347 352 357 1 5 6 8 11 11 9 10 13 15 16 18 21 28 33 33 31 23 13 24 61 82 122 138 144 161 169 171 172 185 200 204 202 201 199 197 198 200 203 205 205 205
271 284 307 327 327 327 337 344 347 358 7 10 13 16 15 11 6 5 2 358 354 350 343 339 339 339 341 345 349 353 357 360 2 6 7 7 6 6 6 7 8 11 16 23 29 34 37 40 43 36 24 22 27 56 87 100 109 149 172 179 175 172 188 194 197 201 201 199 198 199 202 206 208 209
275 286 312 328 322 329 350 1 6 14 17 17 18 18 14 11 9 8 7 5 2 357 351 346 346 347 349 352 354 355 359 1 1 4 8 9 7 8 14 18 1 358 10 19 25 30 37 45 49 48 51 59 61 68 78 69 49 46 80 167 179 170 175 184 190 197 201 201 200 198 200 204 208 211
258 266 310 334 332 340 355 2 6 12 13 14 18 18 13 11 11 10 9 6 2 359 357 354 353 352 352 353 355 357 359 1 2 3 6 10 12 12 16 19 4 358 3 8 11 17 26 39 53 60 62 66 64 63 67 59 36 32 35 35 42 50 69 167 187 191 191 193 196 199 203 207 209 212
238 245 320 329 323 332 353 359 0 5 5 5 9 12 13 14 12 10 10 7 2 1 1 359 357 357 356 355 356 358 358 358 1 4 5 9 14 13 10 6 5 5 3 2 8 13 17 24 37 52 60 64 63 58 55 51 36 27 31 33 30 22 17 19 188 194 190 189 190 192 199 208 212 216
213 221 212 275 301 317 352 358 355 0 3 3 3 4 8 14 14 11 10 7 4 4 3 1 1 2 0 358 357 358 358 357 359 5 8 10 14 13 10 5 3 2 3 7 10 11 13 16 22 29 38 52 59 52 47 44 37 26 24 25 20 10 3 6 1 236 207 200 195 189 189 203 213 218
208 216 206 228 277 298 350 2 358 1 2 4 5 2 3 10 13 12 10 7 7 8 6 3 3 4 3 2 1 0 2 1 1 5 9 9 10 11 10 9 7 7 10 10 8 10 16 19 21 23 25 29 43 47 38 36 36 32 21 9 9 7 1 358 358 316 221 213 208 202 195 198 207 214
204 214 207 214 257 285 354 8 359 359 360 4 9 6 4 8 10 13 14 11 11 13 11 6 6 6 5 5 4 4 6 7 6 7 8 8 10 10 8 4 4 7 11 13 14 16 19 20 22 27 25 16 24 22 358 9 24 31 26 10 1 1 0 0 4 2 295 230 217 214 213 209 208 211
198 210 213 211 238 278 357 17 358 356 2 7 9 10 11 12 12 14 16 15 14 15 14 12 10 9 9 9 7 6 7 9 10 10 9 9 11 11 7 4 3 3 7 11 16 18 19 18 20 21 21 25 29 6 341 344 1 16 23 18 3 357 1 3 357 349 341 296 233 227 227 225 223 222
197 208 216 212 220 249 320 28 0 351 3 11 10 10 11 11 13 14 15 14 15 16 16 15 13 11 12 12 10 9 10 11 11 11 8 8 11 10 8 6 4 2 3 7 11 14 16 14 9 5 2 354 325 311 299 282 315 349 10 20 13 4 4 359 346 344 353 353 305 242 229 230 233 228
200 207 214 214 212 219 224 16 356 347 7 14 9 9 11 11 12 13 12 12 15 17 18 17 16 15 15 15 13 13 14 14 13 11 9 9 11 11 10 9 6 5 6 5 6 9 9 6 3 359 353 348 339 319 302 289 307 343 4 18 24 21 13 5 356 349 350 353 348 293 215 213 221 219
202 207 212 214 210 207 207 202 318 339 14 19 14 15 23 21 16 12 12 14 18 19 19 19 18 18 18 17 16 15 14 13 13 13 11 10 10 10 12 12 10 9 10 8 5 4 1 -0 3 6 5 7 13 20 9 358 350 347 354 6 21 31 31 28 27 18 8 10 12 5 321 212 207 213
205 209 212 213 209 206 207 204 199 221 25 34 30 30 35 33 26 21 20 21 22 23 23 22 20 20 20 20 19 18 16 14 12 11 12 11 10 10 12 13 11 8 7 4 358 356 358 4 10 15 19 21 25 32 28 6 2 343 343 356 12 26 36 43 46 45 37 33 31 25 6 344 289 218
204 207 211 212 209 206 205 202 199 197 161 59 46 44 43 38 33 30 26 22 22 25 26 24 22 22 22 21 21 21 20 17 14 13 13 13 12 10 10 9 8 7 6 3 359 0 6 12 15 17 21 23 23 24 14 352 2 358 345 349 2 13 23 34 43 48 46 41 39 37 28 9 335 292
204 207 210 211 209 207 206 205 203 197 178 125 72 57 50 41 35 33 29 21 19 24 27 26 25 25 23 22 22 22 22 21 19 17 16 16 15 14 12 9 9 10 9 6 4 6 10 13 15 20 24 22 17 14 4 354 4 4 351 347 355 3 8 14 21 29 35 35 34 34 32 23 355 299
205 206 210 211 209 208 207 206 203 199 191 176 144 81 58 48 38 33 32 26 22 24 28 29 29 28 25 23 22 21 21 22 22 22 21 20 18 18 16 13 11 12 12 10 7 5 7 11 16 22 22 19 18 17 11 6 8 5 358 355 356 356 359 4 5 5 8 14 20 25 28 26 14 337